This is the latest recevied weather packets stored in our database for station/object SP6PWT-13. If no packets are shown the sender has not sent any weather packets the latest 10 day(s).
| Time | Temp. | Humidity | Pressure | Rain* | Wind** | Luminosity | Snow |
|---|---|---|---|---|---|---|---|
| 1777515755 | 2.22° C | 70% | 1015 hPa | 0 mm | - | 0 W/m² | - |
| 1777515454 | 2.22° C | 70% | 1014.9 hPa | 0 mm | - | 0 W/m² | - |
| 1777515153 | 2.22° C | 70% | 1015 hPa | 0 mm | - | 0 W/m² | - |
| 1777514853 | 2.22° C | 71% | 1014.8 hPa | 0 mm | - | 0 W/m² | - |
| 1777514552 | 2.78° C | 71% | 1014.8 hPa | 0 mm | - | 0 W/m² | - |
| 1777514252 | 2.22° C | 73% | 1014.8 hPa | 0 mm | - | 0 W/m² | - |
| 1777513951 | 2.22° C | 74% | 1014.8 hPa | 0 mm | - | 0 W/m² | - |
| 1777513651 | 2.78° C | 72% | 1014.8 hPa | 0 mm | - | 0 W/m² | - |
| 1777513350 | 2.22° C | 73% | 1014.6 hPa | 0 mm | - | 0 W/m² | - |
| 1777513050 | 2.78° C | 71% | 1014.4 hPa | 0 mm | - | 0 W/m² | - |
| 1777512749 | 2.78° C | 71% | 1014.5 hPa | 0 mm | - | 0 W/m² | - |
| 1777512448 | 2.78° C | 68% | 1014.5 hPa | 0 mm | - | 0 W/m² | - |
| 1777512148 | 4.44° C | 58% | 1014.4 hPa | 0 mm | - | 0 W/m² | - |
| 1777511848 | 5° C | 47% | 1014.5 hPa | 0 mm | - | 0 W/m² | - |
| 1777511547 | 5° C | 51% | 1014.3 hPa | 0 mm | - | 0 W/m² | - |
| 1777511247 | 5.56° C | 44% | 1014.4 hPa | 0 mm | - | 0 W/m² | - |
| 1777510947 | 5.56° C | 44% | 1014.3 hPa | 0 mm | - | 0 W/m² | - |
| 1777510647 | 5.56° C | 43% | 1014.2 hPa | 0 mm | - | 0 W/m² | - |
| 1777510346 | 5.56° C | 47% | 1014.4 hPa | 0 mm | - | 0 W/m² | - |
| 1777510045 | 5° C | 48% | 1014.4 hPa | 0 mm | - | 0 W/m² | - |
| 1777509744 | 5.56° C | 48% | 1014.4 hPa | 0 mm | - | 0 W/m² | - |
| 1777509443 | 5.56° C | 46% | 1014.3 hPa | 0 mm | - | 0 W/m² | - |
| 1777509143 | 5° C | 47% | 1014.3 hPa | 0 mm | - | 0 W/m² | - |
| 1777508843 | 5° C | 48% | 1014.5 hPa | 0 mm | - | 0 W/m² | - |
| 1777508542 | 5° C | 50% | 1014.4 hPa | 0 mm | - | 0 W/m² | - |
* Rain latest hour (hover to see other rain measurements)
** Current wind speed in m/s (hover to see current wind gust speed)